Tracking 19794 objects as of 21-Jul-2019
HD Live streaming from Space Station
objects crossing your sky now

FENGYUN 1C DEB

Track FENGYUN 1C DEB now!
10-day predictions


NORAD ID: 31955
Int'l Code: 1999-025CNG
Perigee: 733.9 km
Apogee: 826.8 km
Inclination: 99.3 °
Period: 100.3 minutes
Semi major axis: 7151 km
RCS: 0.0141 m2 (small)
Launch date: May 10, 1999
Source: People's Republic of China (PRC)
Launch site: Taiyaun Space Center, China (TSC)

Note: This is SATELLITE DEBRIS
aabbcc
Your satellite tracking list
Your tracking list is empty




NASA's NSSDC Master Catalog

Two Line Element Set (TLE):
1 31955U 99025CNG 19201.95817760 +.00000537 +00000-0 +19913-3 0  9995
2 31955 099.3191 196.9293 0064975 202.7787 185.4166 14.35564442628599
Source of the keplerian elements: AFSPC